Torna al catalogo

CZ-6A DEB

AttivoSSO
NORAD 54527·DEBRIS·🇨🇳 China

Lanciato Nov 11, 2022 da Taiyuan Satellite Launch Center

Loading…

Prossimi Passaggi (prossime 24 ore)

TLE

AggiornatoSource: Space-Track

Epoca: Sep 14, 2026, 08:42 UTC

1 54527U 22151KF  26257.36303798  .00001592  00000-0  59769-3 0  9991
2 54527  98.7164 284.1643 0038397  67.6944 292.8304 14.32608276199718

Traccia CZ-6A DEB in tempo reale con AllMySat

Download on the App Store